TimeEDT,TemperatureF,Dew PointF,Humidity,Sea Level PressureIn,VisibilityMPH,Wind Direction,Wind SpeedMPH,Gust SpeedMPH,PrecipitationIn,Events,Conditions,WindDirDegrees,DateUTC
12:15 AM,66.9,66.9,100,30.29,5.0,Calm,Calm,-,N/A,,Clear,0,2013-07-09 04:15:00
12:35 AM,66.7,66.7,100,30.29,5.0,Calm,Calm,-,N/A,,Clear,0,2013-07-09 04:35:00
12:55 AM,66.2,66.2,100,30.29,5.0,Calm,Calm,-,N/A,,Clear,0,2013-07-09 04:55:00
1:15 AM,66.4,66.4,100,30.28,5.0,Calm,Calm,-,N/A,,Clear,0,2013-07-09 05:15:00
1:35 AM,66.2,66.2,100,30.28,4.0,Calm,Calm,-,N/A,,Clear,0,2013-07-09 05:35:00
1:55 AM,66.0,66.0,100,30.27,7.0,Calm,Calm,-,N/A,,Clear,0,2013-07-09 05:55:00
2:15 AM,66.2,66.2,100,30.26,7.0,Calm,Calm,-,N/A,,Clear,0,2013-07-09 06:15:00
2:35 AM,66.2,66.2,100,30.26,5.0,Calm,Calm,-,N/A,,Clear,0,2013-07-09 06:35:00
2:55 AM,66.4,66.4,100,30.26,7.0,Calm,Calm,-,N/A,,Scattered Clouds,0,2013-07-09 06:55:00
3:15 AM,66.6,66.6,100,30.26,7.0,Calm,Calm,-,N/A,,Clear,0,2013-07-09 07:15:00
3:35 AM,66.2,66.2,100,30.26,5.0,Calm,Calm,-,N/A,,Clear,0,2013-07-09 07:35:00
3:55 AM,66.2,66.2,100,30.26,7.0,Calm,Calm,-,N/A,,Clear,0,2013-07-09 07:55:00
4:15 AM,66.4,66.4,100,30.26,7.0,Calm,Calm,-,N/A,,Clear,0,2013-07-09 08:15:00
4:35 AM,66.2,66.2,100,30.26,5.0,Calm,Calm,-,N/A,,Clear,0,2013-07-09 08:35:00
4:55 AM,66.6,66.6,100,30.26,7.0,Calm,Calm,-,N/A,,Scattered Clouds,0,2013-07-09 08:55:00
5:15 AM,66.7,66.7,100,30.26,7.0,Calm,Calm,-,N/A,,Clear,0,2013-07-09 09:15:00
5:35 AM,66.2,66.2,100,30.26,7.0,Calm,Calm,-,N/A,,Clear,0,2013-07-09 09:35:00
5:55 AM,66.2,66.2,100,30.26,7.0,Calm,Calm,-,N/A,,Clear,0,2013-07-09 09:55:00
6:15 AM,65.8,65.8,100,30.26,5.0,Calm,Calm,-,N/A,,Clear,0,2013-07-09 10:15:00
6:35 AM,66.2,66.2,100,30.27,5.0,Calm,Calm,-,N/A,,Clear,0,2013-07-09 10:35:00
6:55 AM,66.2,66.2,100,30.27,5.0,Calm,Calm,-,N/A,,Clear,0,2013-07-09 10:55:00
7:15 AM,66.6,66.6,100,30.27,5.0,Calm,Calm,-,N/A,,Clear,0,2013-07-09 11:15:00
7:35 AM,67.3,67.3,100,30.27,7.0,Calm,Calm,-,N/A,,Clear,0,2013-07-09 11:35:00
7:55 AM,68.0,68.0,100,30.26,7.0,Calm,Calm,-,N/A,,Clear,0,2013-07-09 11:55:00
8:15 AM,68.7,68.7,100,30.28,7.0,Calm,Calm,-,N/A,,Clear,0,2013-07-09 12:15:00
8:35 AM,69.6,68.4,96,30.28,10.0,Calm,Calm,-,N/A,,Clear,0,2013-07-09 12:35:00
8:55 AM,70.9,68.4,92,30.29,10.0,Calm,Calm,-,N/A,,Clear,0,2013-07-09 12:55:00
9:15 AM,71.6,68.9,91,30.28,10.0,Calm,Calm,-,N/A,,Clear,0,2013-07-09 13:15:00
9:35 AM,72.7,68.9,88,30.29,10.0,Calm,Calm,-,N/A,,Clear,0,2013-07-09 13:35:00
9:55 AM,74.8,69.1,82,30.28,10.0,Calm,Calm,-,N/A,,Clear,0,2013-07-09 13:55:00
10:15 AM,76.8,68.0,74,30.28,10.0,WSW,6.9,-,N/A,,Clear,240,2013-07-09 14:15:00
10:35 AM,78.8,67.8,69,30.28,10.0,WSW,6.9,-,N/A,,Clear,240,2013-07-09 14:35:00
10:55 AM,79.5,68.4,69,30.28,10.0,SW,5.8,-,N/A,,Clear,220,2013-07-09 14:55:00
11:15 AM,80.6,69.1,68,30.28,10.0,West,3.5,-,N/A,,Clear,260,2013-07-09 15:15:00
11:35 AM,79.7,68.4,68,30.28,10.0,WSW,4.6,-,N/A,,Clear,250,2013-07-09 15:35:00
11:55 AM,80.2,67.8,66,30.28,10.0,Calm,Calm,-,N/A,,Clear,0,2013-07-09 15:55:00
12:15 PM,80.4,67.5,65,30.28,10.0,Calm,Calm,-,N/A,,Clear,0,2013-07-09 16:15:00
12:35 PM,82.8,67.6,60,30.28,10.0,SW,4.6,-,N/A,,Clear,230,2013-07-09 16:35:00
12:55 PM,82.6,68.5,62,30.28,10.0,Calm,Calm,-,N/A,,Clear,0,2013-07-09 16:55:00
1:15 PM,83.7,65.8,55,30.28,10.0,Calm,Calm,-,N/A,,Scattered Clouds,0,2013-07-09 17:15:00
1:35 PM,84.4,65.3,53,30.28,10.0,Calm,Calm,-,N/A,,Scattered Clouds,0,2013-07-09 17:35:00
1:55 PM,83.3,66.6,57,30.26,10.0,WSW,3.5,-,N/A,,Mostly Cloudy,250,2013-07-09 17:55:00
2:15 PM,83.8,64.9,53,30.26,10.0,West,5.8,-,N/A,,Scattered Clouds,270,2013-07-09 18:15:00
2:35 PM,84.4,63.7,50,30.25,10.0,WSW,5.8,-,N/A,,Clear,240,2013-07-09 18:35:00
2:55 PM,85.3,62.2,46,30.24,10.0,WSW,4.6,-,N/A,,Clear,250,2013-07-09 18:55:00
3:15 PM,85.1,61.5,45,30.24,10.0,West,5.8,-,N/A,,Clear,280,2013-07-09 19:15:00
3:35 PM,85.6,62.2,45,30.23,10.0,West,4.6,-,N/A,,Clear,260,2013-07-09 19:35:00
3:55 PM,85.5,64.2,49,30.22,10.0,West,5.8,-,N/A,,Clear,260,2013-07-09 19:55:00
4:15 PM,85.3,59.5,42,30.22,10.0,WSW,6.9,-,N/A,,Clear,250,2013-07-09 20:15:00
4:35 PM,85.3,61.7,45,30.21,10.0,WSW,4.6,-,N/A,,Clear,250,2013-07-09 20:35:00
4:55 PM,85.3,59.2,41,30.20,10.0,WSW,3.5,-,N/A,,Clear,250,2013-07-09 20:55:00
5:15 PM,85.3,60.4,43,30.20,10.0,West,4.6,-,N/A,,Clear,280,2013-07-09 21:15:00
5:35 PM,85.1,64.2,49,30.19,10.0,West,6.9,-,N/A,,Clear,260,2013-07-09 21:35:00
5:55 PM,84.6,63.9,50,30.19,10.0,West,8.1,-,N/A,,Clear,280,2013-07-09 21:55:00
6:15 PM,84.4,62.2,47,30.19,10.0,WSW,5.8,-,N/A,,Clear,250,2013-07-09 22:15:00
6:35 PM,84.4,64.2,51,30.20,10.0,WSW,5.8,-,N/A,,Clear,240,2013-07-09 22:35:00
6:55 PM,84.0,63.1,49,30.20,10.0,West,5.8,-,N/A,,Scattered Clouds,280,2013-07-09 22:55:00
7:15 PM,83.5,64.9,53,30.20,10.0,West,4.6,-,N/A,,Scattered Clouds,280,2013-07-09 23:15:00
7:35 PM,81.0,64.6,57,30.21,10.0,Calm,Calm,-,N/A,,Clear,0,2013-07-09 23:35:00
7:55 PM,79.7,65.7,62,30.20,10.0,Calm,Calm,-,N/A,,Scattered Clouds,0,2013-07-09 23:55:00
8:15 PM,77.9,66.4,68,30.20,10.0,Calm,Calm,-,N/A,,Scattered Clouds,0,2013-07-10 00:15:00
8:35 PM,77.4,67.1,71,30.21,10.0,Calm,Calm,-,N/A,,Clear,0,2013-07-10 00:35:00
8:55 PM,76.1,68.2,76,30.21,10.0,Calm,Calm,-,N/A,,Clear,0,2013-07-10 00:55:00
9:15 PM,75.2,68.4,79,30.21,10.0,Calm,Calm,-,N/A,,Clear,0,2013-07-10 01:15:00
9:35 PM,74.3,68.9,83,30.22,10.0,Calm,Calm,-,N/A,,Clear,0,2013-07-10 01:35:00
9:55 PM,74.5,68.4,81,30.22,10.0,Calm,Calm,-,N/A,,Clear,0,2013-07-10 01:55:00
10:15 PM,73.4,70.2,90,30.23,10.0,Calm,Calm,-,N/A,,Clear,0,2013-07-10 02:15:00
10:35 PM,72.9,72.0,97,30.23,10.0,Calm,Calm,-,N/A,,Clear,0,2013-07-10 02:35:00
10:55 PM,72.0,72.0,100,30.22,10.0,Calm,Calm,-,N/A,,Clear,0,2013-07-10 02:55:00
11:15 PM,71.6,71.6,100,30.22,10.0,Calm,Calm,-,N/A,,Clear,0,2013-07-10 03:15:00
11:35 PM,71.6,71.6,100,30.22,10.0,Calm,Calm,-,N/A,,Clear,0,2013-07-10 03:35:00
11:55 PM,70.9,70.9,100,30.22,10.0,Calm,Calm,-,N/A,,Clear,0,2013-07-10 03:55:00